Lid_Strength_Index
15 15 16 16 16 16 16 17 16 16 16 15 15 15 14 14 14 13 13 13 13 13 13 14 14 13 14 14 14 14 15 15 15 15 14 14 14 14 15 15 14 14 13
15 15 16 16 17 17 17 17 16 16 16 15 15 15 15 14 14 14 13 13 14 14 14 14 14 13 15 15 15 15 15 15 15 16 15 15 15 15 16 15 14 13 14
16 16 17 17 18 18 18 17 16 16 16 15 15 15 15 14 14 13 13 14 14 14 15 14 15 15 15 16 16 16 16 15 15 15 16 15 15 16 16 16 15 15 14
16 17 17 18 18 18 17 17 16 16 16 15 15 15 15 14 14 13 13 14 14 14 14 15 15 15 15 15 16 16 15 15 15 15 16 16 16 16 17 18 18 17 17
17 17 17 17 17 17 16 16 16 16 15 15 15 15 14 14 13 14 14 14 15 16 15 15 15 15 14 14 15 16 15 16 16 17 18 17 18 18 19 18 19 18 18
15 16 16 16 16 16 16 16 16 16 15 15 15 14 15 13 12 12 14 15 15 15 16 17 16 16 15 14 14 14 14 16 17 18 18 19 19 18 18 19 19 20 21
15 15 16 16 16 16 16 16 16 16 16 16 15 15 15 14 12 13 14 15 16 16 16 17 17 16 16 16 15 15 15 15 16 18 19 19 19 18 18 19 20 21 21
15 15 15 16 16 16 16 16 16 15 16 16 15 15 15 14 12 13 14 16 16 16 16 17 17 17 16 17 18 18 17 18 18 18 19 19 18 18 18 20 21 22 23
14 15 15 16 16 17 17 17 16 16 16 16 15 15 15 14 13 14 15 16 17 17 17 17 17 17 16 17 18 18 18 19 18 18 18 18 18 18 18 22 26 27 30
14 15 15 15 16 17 17 17 17 16 16 15 16 15 15 15 14 14 15 16 17 17 18 18 16 17 16 17 18 19 20 21 21 23 22 21 20 20 20 21 23 31 29
15 16 16 16 16 16 17 17 17 17 16 17 17 17 16 15 15 15 15 16 17 18 18 19 18 17 17 18 18 19 20 22 23 24 24 23 23 23 23 22 22 23 26
16 16 17 17 17 17 17 16 16 16 17 18 18 18 18 17 15 15 15 16 16 18 19 19 19 18 18 19 19 19 21 23 26 28 27 26 25 25 24 23 23 23 22
17 18 18 17 17 16 17 17 17 17 18 18 19 19 19 18 17 15 16 16 17 19 19 19 19 19 19 21 20 21 23 25 27 31 28 26 26 25 24 25 24 24 24
18 19 18 18 17 17 17 17 17 18 18 19 19 20 20 20 19 19 18 18 17 19 21 22 21 22 22 24 25 24 25 26 26 27 27 27 26 27 27 26 27 26 27
18 19 18 17 17 17 17 17 17 17 17 19 19 20 21 21 20 18 18 19 21 22 26 26 26 26 26 26 27 27 27 27 28 28 29 30 29 28 28 27 28 28 31
18 17 18 18 18 18 19 19 16 16 16 16 17 19 19 18 17 16 16 17 18 20 27 28 27 27 27 27 28 28 28 29 29 30 31 30 30 30 29 28 27 31 29
17 18 18 18 19 20 20 20 20 17 15 16 16 17 18 18 17 17 16 17 17 22 29 28 28 28 29 28 29 29 30 30 30 31 31 32 31 31 31 31 29 29 30
18 18 19 19 19 19 20 20 19 19 20 19 17 18 18 17 18 17 17 19 25 28 30 30 31 31 31 31 31 31 31 31 32 32 33 35 37 35 35 33 31 33 32
20 20 20 20 20 20 20 21 21 22 23 25 24 20 20 18 18 17 18 27 28 30 32 33 34 33 33 33 33 36 37 37 37 38 40 39 39 39 38 35 32 31 30
22 21 22 22 22 23 22 23 24 24 24 25 25 25 27 26 26 27 28 29 30 31 32 33 34 35 37 40 40 41 42 43 42 42 40 39 38 38 36 37 35 33 32
24 24 24 24 24 24 24 24 24 25 25 25 26 26 24 27 27 28 29 30 31 32 32 34 36 38 39 41 44 45 43 39 41 39 39 38 40 40 37 34 32 33 31
24 25 25 25 25 25 25 25 25 25 26 27 28 27 20 26 28 29 31 32 34 34 35 35 36 37 39 40 39 40 39 37 38 38 37 37 39 38 38 34 33 31 31
24 25 25 26 25 25 26 26 26 26 27 27 28 29 30 32 33 34 34 34 35 37 39 41 40 40 39 38 37 36 35 33 33 36 36 38 37 36 37 34 32 32 31
24 25 25 26 26 26 27 28 29 29 31 32 33 34 33 34 34 34 35 37 41 41 43 40 38 36 37 36 37 36 34 32 36 34 36 35 34 33 36 34 31 30 29
25 26 27 29 31 32 33 34 34 35 35 34 35 35 35 36 37 39 39 40 39 39 37 36 36 35 34 34 34 35 34 28 28 32 34 34 33 33 31 30 29 28 29
34 34 35 36 36 36 35 34 35 35 35 35 36 37 37 37 37 39 39 40 38 36 35 35 35 35 34 33 33 31 30 26 28 29 30 30 30 30 29 30 30 29 28